Year,Month,Day,Hour,Minute,Value (Times are PST for temperature in C)
2023,04,27,00,00,9.00
2023,04,27,00,01,9.00
2023,04,27,00,02,9.00
2023,04,27,00,03,9.00
2023,04,27,00,04,9.00
2023,04,27,00,05,8.90
2023,04,27,00,06,8.90
2023,04,27,00,07,8.90
2023,04,27,00,08,8.90
2023,04,27,00,09,8.90
2023,04,27,00,10,8.90
2023,04,27,00,11,8.90
2023,04,27,00,12,8.90
2023,04,27,00,13,8.90
2023,04,27,00,14,8.90
2023,04,27,00,15,8.90
2023,04,27,00,16,8.90
2023,04,27,00,17,8.90
2023,04,27,00,18,8.90
2023,04,27,00,19,8.90
2023,04,27,00,20,8.90
2023,04,27,00,21,8.90
2023,04,27,00,22,8.90
2023,04,27,00,23,8.90
2023,04,27,00,24,9.00
2023,04,27,00,25,9.00
2023,04,27,00,26,9.00
2023,04,27,00,27,9.00
2023,04,27,00,28,9.10
2023,04,27,00,29,9.10
2023,04,27,00,30,9.10
2023,04,27,00,31,9.10
2023,04,27,00,32,9.10
2023,04,27,00,33,9.10
2023,04,27,00,34,9.10
2023,04,27,00,35,9.10
2023,04,27,00,36,9.10
2023,04,27,00,37,9.10
2023,04,27,00,38,9.10
2023,04,27,00,39,9.20
2023,04,27,00,40,9.20
2023,04,27,00,41,9.20
2023,04,27,00,42,9.20
2023,04,27,00,43,9.20
2023,04,27,00,44,9.20
2023,04,27,00,45,9.20
2023,04,27,00,46,9.20
2023,04,27,00,47,9.20
2023,04,27,00,48,9.20
2023,04,27,00,49,9.20
2023,04,27,00,50,9.20
2023,04,27,00,51,9.20
2023,04,27,00,52,9.20
2023,04,27,00,53,9.20
2023,04,27,00,54,9.20
2023,04,27,00,55,9.20
2023,04,27,00,56,9.20
2023,04,27,00,57,9.20
2023,04,27,00,58,9.20
2023,04,27,00,59,9.20
2023,04,27,01,00,9.20
2023,04,27,01,01,9.20
2023,04,27,01,02,9.20
2023,04,27,01,03,9.20
2023,04,27,01,04,9.20
2023,04,27,01,05,9.20
2023,04,27,01,06,9.20
2023,04,27,01,07,9.20
2023,04,27,01,08,9.20
2023,04,27,01,09,9.20
2023,04,27,01,10,9.10
2023,04,27,01,11,9.10
2023,04,27,01,12,9.10
2023,04,27,01,13,9.10
2023,04,27,01,14,9.10
2023,04,27,01,15,9.10
2023,04,27,01,16,9.10
2023,04,27,01,17,9.00
2023,04,27,01,18,9.00
2023,04,27,01,19,9.00
2023,04,27,01,20,9.00
2023,04,27,01,21,9.00
2023,04,27,01,22,9.00
2023,04,27,01,23,9.00
2023,04,27,01,24,9.00
2023,04,27,01,25,9.00
2023,04,27,01,26,9.00
2023,04,27,01,27,9.00
2023,04,27,01,28,9.00
2023,04,27,01,29,8.90
2023,04,27,01,30,8.90
2023,04,27,01,31,8.90
2023,04,27,01,32,8.90
2023,04,27,01,33,8.90
2023,04,27,01,34,8.80
2023,04,27,01,35,8.80
2023,04,27,01,36,8.80
2023,04,27,01,37,8.80
2023,04,27,01,38,8.80
2023,04,27,01,39,8.80
2023,04,27,01,40,8.80
2023,04,27,01,41,8.80
2023,04,27,01,42,8.70
2023,04,27,01,43,8.70
2023,04,27,01,44,8.70
2023,04,27,01,45,8.70
2023,04,27,01,46,8.70
2023,04,27,01,47,8.70
2023,04,27,01,48,8.60
2023,04,27,01,49,8.60
2023,04,27,01,50,8.60
2023,04,27,01,51,8.60
2023,04,27,01,52,8.50
2023,04,27,01,53,8.50
2023,04,27,01,54,8.40
2023,04,27,01,55,8.40
2023,04,27,01,56,8.40
2023,04,27,01,57,8.30
2023,04,27,01,58,8.30
2023,04,27,01,59,8.30
2023,04,27,02,00,8.30
2023,04,27,02,01,8.30
2023,04,27,02,02,8.30
2023,04,27,02,03,8.30
2023,04,27,02,04,8.40
2023,04,27,02,05,8.40
2023,04,27,02,06,8.40
2023,04,27,02,07,8.40
2023,04,27,02,08,8.40
2023,04,27,02,09,8.30
2023,04,27,02,10,8.30
2023,04,27,02,11,8.20
2023,04,27,02,12,8.20
2023,04,27,02,13,8.10
2023,04,27,02,14,8.10
2023,04,27,02,15,8.00
2023,04,27,02,16,8.00
2023,04,27,02,17,8.00
2023,04,27,02,18,7.90
2023,04,27,02,19,7.90
2023,04,27,02,20,7.90
2023,04,27,02,21,7.90
2023,04,27,02,22,7.90
2023,04,27,02,23,7.80
2023,04,27,02,24,7.80
2023,04,27,02,25,7.80
2023,04,27,02,26,7.80
2023,04,27,02,27,7.70
2023,04,27,02,28,7.70
2023,04,27,02,29,7.70
2023,04,27,02,30,7.70
2023,04,27,02,31,7.70
2023,04,27,02,32,7.70
2023,04,27,02,33,7.70
2023,04,27,02,34,7.70
2023,04,27,02,35,7.70
2023,04,27,02,36,7.80
2023,04,27,02,37,7.80
2023,04,27,02,38,7.90
2023,04,27,02,39,7.90
2023,04,27,02,40,7.90
2023,04,27,02,41,7.90
2023,04,27,02,42,7.90
2023,04,27,02,43,7.90
2023,04,27,02,44,7.90
2023,04,27,02,45,7.80
2023,04,27,02,46,7.80
2023,04,27,02,47,7.80
2023,04,27,02,48,7.80
2023,04,27,02,49,7.80
2023,04,27,02,50,7.80
2023,04,27,02,51,7.80
2023,04,27,02,52,7.80
2023,04,27,02,53,7.80
2023,04,27,02,54,7.80
2023,04,27,02,55,7.80
2023,04,27,02,56,7.80
2023,04,27,02,57,7.80
2023,04,27,02,58,7.80
2023,04,27,02,59,7.80
2023,04,27,03,00,7.80
2023,04,27,03,01,7.80
2023,04,27,03,02,7.80
2023,04,27,03,06,7.90
2023,04,27,03,07,7.90
2023,04,27,03,08,8.00
2023,04,27,03,09,8.00
2023,04,27,03,10,8.10
2023,04,27,03,11,8.10
2023,04,27,03,12,8.10
2023,04,27,03,13,8.10
2023,04,27,03,14,8.10
2023,04,27,03,15,8.10
2023,04,27,03,16,8.10
2023,04,27,03,17,8.10
2023,04,27,03,18,8.10
2023,04,27,03,19,8.10
2023,04,27,03,20,8.00
2023,04,27,03,21,8.00
2023,04,27,03,22,8.00
2023,04,27,03,23,7.90
2023,04,27,03,24,7.90
2023,04,27,03,25,7.90
2023,04,27,03,26,7.80
2023,04,27,03,27,7.80
2023,04,27,03,28,7.80
2023,04,27,03,29,7.70
2023,04,27,03,30,7.70
2023,04,27,03,31,7.70
2023,04,27,03,32,7.70
2023,04,27,03,33,7.70
2023,04,27,03,34,7.70
2023,04,27,03,35,7.70
2023,04,27,03,36,7.70
2023,04,27,03,37,7.80
2023,04,27,03,38,7.80
2023,04,27,03,39,7.80
2023,04,27,03,40,7.80
2023,04,27,03,41,7.70
2023,04,27,03,42,7.70
2023,04,27,03,43,7.70
2023,04,27,03,44,7.70
2023,04,27,03,45,7.70
2023,04,27,03,46,7.70
2023,04,27,03,47,7.80
2023,04,27,03,48,7.80
2023,04,27,03,49,7.70
2023,04,27,03,50,7.70
2023,04,27,03,51,7.60
2023,04,27,03,52,7.60
2023,04,27,03,53,7.60
2023,04,27,03,54,7.50
2023,04,27,03,55,7.50
2023,04,27,03,56,7.50
2023,04,27,03,57,7.50
2023,04,27,03,58,7.50
2023,04,27,03,59,7.50
2023,04,27,04,00,7.60
2023,04,27,04,01,7.60
2023,04,27,04,02,7.60
2023,04,27,04,03,7.60
2023,04,27,04,04,7.60
2023,04,27,04,05,7.60
2023,04,27,04,06,7.60
2023,04,27,04,07,7.60
2023,04,27,04,08,7.60
2023,04,27,04,09,7.60
2023,04,27,04,10,7.60
2023,04,27,04,11,7.60
2023,04,27,04,12,7.70
2023,04,27,04,13,7.70
2023,04,27,04,14,7.70
2023,04,27,04,15,7.70
2023,04,27,04,16,7.80
2023,04,27,04,17,7.80
2023,04,27,04,18,7.80
2023,04,27,04,19,7.80
2023,04,27,04,20,7.80
2023,04,27,04,21,7.80
2023,04,27,04,22,7.70
2023,04,27,04,23,7.70
2023,04,27,04,24,7.70
2023,04,27,04,25,7.70
2023,04,27,04,26,7.70
2023,04,27,04,27,7.70
2023,04,27,04,28,7.70
2023,04,27,04,29,7.70
2023,04,27,04,30,7.70
2023,04,27,04,31,7.70
2023,04,27,04,32,7.70
2023,04,27,04,33,7.70
2023,04,27,04,34,7.70
2023,04,27,04,35,7.70
2023,04,27,04,36,7.70
2023,04,27,04,37,7.70
2023,04,27,04,38,7.70
2023,04,27,04,39,7.70
2023,04,27,04,40,7.60
2023,04,27,04,41,7.60
2023,04,27,04,42,7.60
2023,04,27,04,43,7.60
2023,04,27,04,44,7.60
2023,04,27,04,45,7.60
2023,04,27,04,46,7.60
2023,04,27,04,47,7.60
2023,04,27,04,48,7.60
2023,04,27,04,49,7.60
2023,04,27,04,50,7.50
2023,04,27,04,51,7.60
2023,04,27,04,52,7.60
2023,04,27,04,53,7.60
2023,04,27,04,54,7.60
2023,04,27,04,55,7.60
2023,04,27,04,56,7.70
2023,04,27,04,57,7.70
2023,04,27,04,58,7.70
2023,04,27,04,59,7.70
2023,04,27,05,00,7.70
2023,04,27,05,01,7.60
2023,04,27,05,02,7.60
2023,04,27,05,03,7.50
2023,04,27,05,04,7.50
2023,04,27,05,05,7.40
2023,04,27,05,06,7.40
2023,04,27,05,07,7.40
2023,04,27,05,08,7.40
2023,04,27,05,09,7.40
2023,04,27,05,10,7.40
2023,04,27,05,11,7.40
2023,04,27,05,12,7.40
2023,04,27,05,13,7.40
2023,04,27,05,14,7.40
2023,04,27,05,15,7.50
2023,04,27,05,16,7.50
2023,04,27,05,17,7.60
2023,04,27,05,18,7.60
2023,04,27,05,19,7.60
2023,04,27,05,20,7.50
2023,04,27,05,21,7.50
2023,04,27,05,22,7.50
2023,04,27,05,23,7.40
2023,04,27,05,24,7.40
2023,04,27,05,25,7.40
2023,04,27,05,26,7.40
2023,04,27,05,27,7.30
2023,04,27,05,28,7.30
2023,04,27,05,29,7.30
2023,04,27,05,30,7.30
2023,04,27,05,31,7.30
2023,04,27,05,32,7.20
2023,04,27,05,33,7.20
2023,04,27,05,34,7.20
2023,04,27,05,35,7.20
2023,04,27,05,36,7.20
2023,04,27,05,37,7.20
2023,04,27,05,38,7.20
2023,04,27,05,39,7.20
2023,04,27,05,40,7.20
2023,04,27,05,41,7.20
2023,04,27,05,42,7.20
2023,04,27,05,43,7.20
2023,04,27,05,44,7.20
2023,04,27,05,45,7.20
2023,04,27,05,46,7.20
2023,04,27,05,47,7.10
2023,04,27,05,48,7.10
2023,04,27,05,49,7.10
2023,04,27,05,50,7.10
2023,04,27,05,51,7.10
2023,04,27,05,52,7.10
2023,04,27,05,53,7.00
2023,04,27,05,54,7.00
2023,04,27,05,55,7.10
2023,04,27,05,56,7.10
2023,04,27,05,57,7.10
2023,04,27,05,58,7.20
2023,04,27,05,59,7.20
2023,04,27,06,00,7.20
2023,04,27,06,01,7.30
2023,04,27,06,02,7.30
2023,04,27,06,03,7.30
2023,04,27,06,04,7.30
2023,04,27,06,05,7.40
2023,04,27,06,06,7.40
2023,04,27,06,07,7.50
2023,04,27,06,08,7.50
2023,04,27,06,09,7.60
2023,04,27,06,10,7.60
2023,04,27,06,11,7.60
2023,04,27,06,12,7.70
2023,04,27,06,13,7.70
2023,04,27,06,14,7.60
2023,04,27,06,15,7.50
2023,04,27,06,16,7.50
2023,04,27,06,17,7.50
2023,04,27,06,18,7.50
2023,04,27,06,19,7.60
2023,04,27,06,20,7.70
2023,04,27,06,21,7.80
2023,04,27,06,22,7.90
2023,04,27,06,23,7.90
2023,04,27,06,24,8.10
2023,04,27,06,25,8.20
2023,04,27,06,26,8.20
2023,04,27,06,27,8.30
2023,04,27,06,28,8.30
2023,04,27,06,29,8.30
2023,04,27,06,30,8.30
2023,04,27,06,31,8.30
2023,04,27,06,32,8.30
2023,04,27,06,33,8.30
2023,04,27,06,34,8.30
2023,04,27,06,35,8.30
2023,04,27,06,36,8.20
2023,04,27,06,37,8.20
2023,04,27,06,38,8.20
2023,04,27,06,39,8.20
2023,04,27,06,40,8.10
2023,04,27,06,41,8.10
2023,04,27,06,42,8.10
2023,04,27,06,43,8.10
2023,04,27,06,44,8.10
2023,04,27,06,45,8.00
2023,04,27,06,46,8.00
2023,04,27,06,47,7.90
2023,04,27,06,48,7.90
2023,04,27,06,49,7.90
2023,04,27,06,50,7.90
2023,04,27,06,51,7.90
2023,04,27,06,52,7.90
2023,04,27,06,53,7.80
2023,04,27,06,54,7.90
2023,04,27,06,55,7.90
2023,04,27,06,56,7.90
2023,04,27,06,57,7.90
2023,04,27,06,58,7.90
2023,04,27,06,59,7.90
2023,04,27,07,00,8.00
2023,04,27,07,01,8.00
2023,04,27,07,02,8.10
2023,04,27,07,03,8.20
2023,04,27,07,04,8.30
2023,04,27,07,05,8.30
2023,04,27,07,06,8.30
2023,04,27,07,07,8.30
2023,04,27,07,08,8.30
2023,04,27,07,09,8.30
2023,04,27,07,10,8.30
2023,04,27,07,11,8.30
2023,04,27,07,12,8.30
2023,04,27,07,13,8.30
2023,04,27,07,14,8.30
2023,04,27,07,15,8.30
2023,04,27,07,16,8.40
2023,04,27,07,17,8.40
2023,04,27,07,18,8.40
2023,04,27,07,19,8.50
2023,04,27,07,20,8.60
2023,04,27,07,21,8.60
2023,04,27,07,22,8.70
2023,04,27,07,23,8.80
2023,04,27,07,24,8.80
2023,04,27,07,25,8.90
2023,04,27,07,26,8.90
2023,04,27,07,27,9.00
2023,04,27,07,28,9.00
2023,04,27,07,29,9.10
2023,04,27,07,30,9.10
2023,04,27,07,31,9.20
2023,04,27,07,32,9.20
2023,04,27,07,33,9.20
2023,04,27,07,34,9.20
2023,04,27,07,35,9.30
2023,04,27,07,36,9.30
2023,04,27,07,37,9.30
2023,04,27,07,38,9.30
2023,04,27,07,39,9.30
2023,04,27,07,40,9.30
2023,04,27,07,41,9.30
2023,04,27,07,42,9.30
2023,04,27,07,43,9.40
2023,04,27,07,44,9.40
2023,04,27,07,45,9.40
2023,04,27,07,46,9.40
2023,04,27,07,47,9.50
2023,04,27,07,48,9.50
2023,04,27,07,49,9.50
2023,04,27,07,50,9.60
2023,04,27,07,51,9.60
2023,04,27,07,52,9.60
2023,04,27,07,53,9.70
2023,04,27,07,54,9.70
2023,04,27,07,55,9.70
2023,04,27,07,56,9.80
2023,04,27,07,57,9.80
2023,04,27,07,58,9.80
2023,04,27,07,59,9.80
2023,04,27,08,00,9.80
2023,04,27,08,01,9.80
2023,04,27,08,02,9.90
2023,04,27,08,03,9.90
2023,04,27,08,04,10.00
2023,04,27,08,05,10.00
2023,04,27,08,06,10.00
2023,04,27,08,07,10.10
2023,04,27,08,08,10.10
2023,04,27,08,09,10.10
2023,04,27,08,10,10.20
2023,04,27,08,11,10.20
2023,04,27,08,12,10.20
2023,04,27,08,13,10.20
2023,04,27,08,14,10.20
2023,04,27,08,15,10.20
2023,04,27,08,16,10.10
2023,04,27,08,17,10.10
2023,04,27,08,18,10.00
2023,04,27,08,19,10.00
2023,04,27,08,20,10.00
2023,04,27,08,21,9.90
2023,04,27,08,22,9.90
2023,04,27,08,23,9.90
2023,04,27,08,24,9.90
2023,04,27,08,25,9.90
2023,04,27,08,26,10.00
2023,04,27,08,27,10.00
2023,04,27,08,28,10.00
2023,04,27,08,29,9.90
2023,04,27,08,30,9.90
2023,04,27,08,31,9.90
2023,04,27,08,32,9.90
2023,04,27,08,33,9.90
2023,04,27,08,34,10.00
2023,04,27,08,35,10.00
2023,04,27,08,36,10.00
2023,04,27,08,37,10.10
2023,04,27,08,38,10.10
2023,04,27,08,39,10.20
2023,04,27,08,40,10.20
2023,04,27,08,41,10.20
2023,04,27,08,42,10.30
2023,04,27,08,43,10.30
2023,04,27,08,44,10.30
2023,04,27,08,45,10.40
2023,04,27,08,46,10.40
2023,04,27,08,47,10.40
2023,04,27,08,48,10.40
2023,04,27,08,49,10.50
2023,04,27,08,50,10.50
2023,04,27,08,51,10.50
2023,04,27,08,52,10.60
2023,04,27,08,53,10.60
2023,04,27,08,54,10.60
2023,04,27,08,55,10.60
2023,04,27,08,56,10.70
2023,04,27,08,57,10.70
2023,04,27,08,58,10.80
2023,04,27,08,59,10.90
2023,04,27,09,00,11.00
2023,04,27,09,01,11.10
2023,04,27,09,02,11.10
2023,04,27,09,03,11.20
2023,04,27,09,04,11.30
2023,04,27,09,05,11.30
2023,04,27,09,06,11.30
2023,04,27,09,07,11.30
2023,04,27,09,08,11.30
2023,04,27,09,09,11.30
2023,04,27,09,10,11.30
2023,04,27,09,11,11.30
2023,04,27,09,12,11.40
2023,04,27,09,13,11.40
2023,04,27,09,14,11.40
2023,04,27,09,15,11.40
2023,04,27,09,16,11.40
2023,04,27,09,17,11.40
2023,04,27,09,18,11.40
2023,04,27,09,19,11.40
2023,04,27,09,20,11.50
2023,04,27,09,21,11.60
2023,04,27,09,22,11.60
2023,04,27,09,23,11.70
2023,04,27,09,24,11.80
2023,04,27,09,25,11.90
2023,04,27,09,26,12.00
2023,04,27,09,27,12.00
2023,04,27,09,28,12.10
2023,04,27,09,29,12.10
2023,04,27,09,30,12.10
2023,04,27,09,31,12.20
2023,04,27,09,32,12.20
2023,04,27,09,33,12.20
2023,04,27,09,34,12.20
2023,04,27,09,35,12.20
2023,04,27,09,36,12.20
2023,04,27,09,37,12.30
2023,04,27,09,38,12.30
2023,04,27,09,39,12.30
2023,04,27,09,40,12.30
2023,04,27,09,41,12.40
2023,04,27,09,42,12.30
2023,04,27,09,43,12.30
2023,04,27,09,44,12.30
2023,04,27,09,45,12.30
2023,04,27,09,46,12.30
2023,04,27,09,47,12.30
2023,04,27,09,48,12.30
2023,04,27,09,49,12.30
2023,04,27,09,50,12.30
2023,04,27,09,51,12.40
2023,04,27,09,52,12.40
2023,04,27,09,53,12.40
2023,04,27,09,54,12.50
2023,04,27,09,55,12.50
2023,04,27,09,56,12.40
2023,04,27,09,57,12.30
2023,04,27,09,58,12.30
2023,04,27,09,59,12.20
2023,04,27,10,00,12.20
2023,04,27,10,01,12.20
2023,04,27,10,02,12.20
2023,04,27,10,03,12.30
2023,04,27,10,04,12.30
2023,04,27,10,05,12.30
2023,04,27,10,06,12.30
2023,04,27,10,07,12.30
2023,04,27,10,08,12.30
2023,04,27,10,09,12.40
2023,04,27,10,10,12.50
2023,04,27,10,11,12.50
2023,04,27,10,12,12.60
2023,04,27,10,13,12.60
2023,04,27,10,14,12.60
2023,04,27,10,15,12.60
2023,04,27,10,16,12.70
2023,04,27,10,17,12.70
2023,04,27,10,18,12.80
2023,04,27,10,19,12.90
2023,04,27,10,20,12.90
2023,04,27,10,21,13.00
2023,04,27,10,22,13.00
2023,04,27,10,23,13.10
2023,04,27,10,24,13.10
2023,04,27,10,25,13.10
2023,04,27,10,26,13.20
2023,04,27,10,27,13.20
2023,04,27,10,28,13.10
2023,04,27,10,29,13.10
2023,04,27,10,30,13.10
2023,04,27,10,31,13.10
2023,04,27,10,32,13.10
2023,04,27,10,33,13.10
2023,04,27,10,34,13.10
2023,04,27,10,35,13.10
2023,04,27,10,36,13.10
2023,04,27,10,37,13.10
2023,04,27,10,38,13.20
2023,04,27,10,39,13.20
2023,04,27,10,40,13.20
2023,04,27,10,41,13.20
2023,04,27,10,42,13.30
2023,04,27,10,43,13.30
2023,04,27,10,44,13.30
2023,04,27,10,45,13.40
2023,04,27,10,46,13.40
2023,04,27,10,47,13.40
2023,04,27,10,48,13.50
2023,04,27,10,49,13.50
2023,04,27,10,50,13.60
2023,04,27,10,51,13.60
2023,04,27,10,52,13.70
2023,04,27,10,53,13.70
2023,04,27,10,54,13.70
2023,04,27,10,55,13.70
2023,04,27,10,56,13.70
2023,04,27,10,57,13.80
2023,04,27,10,58,13.80
2023,04,27,10,59,13.80
2023,04,27,11,00,13.80
2023,04,27,11,01,13.80
2023,04,27,11,02,13.80
2023,04,27,11,03,13.70
2023,04,27,11,04,13.60
2023,04,27,11,05,13.60
2023,04,27,11,06,13.60
2023,04,27,11,07,13.60
2023,04,27,11,08,13.60
2023,04,27,11,09,13.60
2023,04,27,11,10,13.60
2023,04,27,11,11,13.60
2023,04,27,11,12,13.70
2023,04,27,11,13,13.70
2023,04,27,11,14,13.70
2023,04,27,11,15,13.70
2023,04,27,11,16,13.70
2023,04,27,11,17,13.70
2023,04,27,11,18,13.70
2023,04,27,11,19,13.60
2023,04,27,11,20,13.60
2023,04,27,11,21,13.50
2023,04,27,11,22,13.50
2023,04,27,11,23,13.50
2023,04,27,11,24,13.60
2023,04,27,11,25,13.60
2023,04,27,11,26,13.70
2023,04,27,11,27,13.80
2023,04,27,11,28,13.80
2023,04,27,11,29,13.80
2023,04,27,11,30,13.80
2023,04,27,11,31,13.90
2023,04,27,11,32,13.90
2023,04,27,11,33,14.00
2023,04,27,11,34,14.00
2023,04,27,11,35,13.90
2023,04,27,11,36,13.80
2023,04,27,11,37,13.80
2023,04,27,11,38,13.90
2023,04,27,11,39,13.90
2023,04,27,11,40,13.90
2023,04,27,11,41,13.90
2023,04,27,11,42,14.00
2023,04,27,11,43,14.00
2023,04,27,11,44,14.10
2023,04,27,11,45,14.20
2023,04,27,11,46,14.20
2023,04,27,11,47,14.20
2023,04,27,11,48,14.20
2023,04,27,11,49,14.20
2023,04,27,11,50,14.10
2023,04,27,11,51,14.20
2023,04,27,11,52,14.20
2023,04,27,11,53,14.30
2023,04,27,11,54,14.40
2023,04,27,11,55,14.50
2023,04,27,11,56,14.60
2023,04,27,11,57,14.60
2023,04,27,11,58,14.70
2023,04,27,11,59,14.70
2023,04,27,12,00,14.60
2023,04,27,12,01,14.60
2023,04,27,12,02,14.50
2023,04,27,12,03,14.40
2023,04,27,12,04,14.40
2023,04,27,12,05,14.50
2023,04,27,12,06,14.60
2023,04,27,12,07,14.50
2023,04,27,12,08,14.50
2023,04,27,12,09,14.50
2023,04,27,12,10,14.60
2023,04,27,12,11,14.60
2023,04,27,12,12,14.70
2023,04,27,12,13,14.80
2023,04,27,12,14,14.80
2023,04,27,12,15,14.90
2023,04,27,12,16,15.00
2023,04,27,12,17,15.00
2023,04,27,12,18,15.00
2023,04,27,12,19,15.00
2023,04,27,12,20,15.00
2023,04,27,12,21,15.00
2023,04,27,12,22,15.00
2023,04,27,12,23,15.00
2023,04,27,12,24,14.90
2023,04,27,12,25,14.80
2023,04,27,12,26,14.70
2023,04,27,12,27,14.60
2023,04,27,12,28,14.40
2023,04,27,12,29,14.40
2023,04,27,12,30,14.30
2023,04,27,12,31,14.30
2023,04,27,12,32,14.30
2023,04,27,12,33,14.40
2023,04,27,12,34,14.50
2023,04,27,12,35,14.60
2023,04,27,12,36,14.70
2023,04,27,12,37,14.80
2023,04,27,12,38,15.00
2023,04,27,12,39,15.00
2023,04,27,12,40,15.10
2023,04,27,12,41,15.20
2023,04,27,12,42,15.30
2023,04,27,12,43,15.30
2023,04,27,12,44,15.40
2023,04,27,12,45,15.50
2023,04,27,12,46,15.50
2023,04,27,12,47,15.60
2023,04,27,12,48,15.60
2023,04,27,12,49,15.60
2023,04,27,12,50,15.60
2023,04,27,12,51,15.60
2023,04,27,12,52,15.60
2023,04,27,12,53,15.60
2023,04,27,12,54,15.60
2023,04,27,12,55,15.50
2023,04,27,12,56,15.50
2023,04,27,12,57,15.40
2023,04,27,12,58,15.40
2023,04,27,12,59,15.40
2023,04,27,13,00,15.40
2023,04,27,13,01,15.40
2023,04,27,13,02,15.40
2023,04,27,13,03,15.30
2023,04,27,13,04,15.30
2023,04,27,13,05,15.40
2023,04,27,13,06,15.50
2023,04,27,13,07,15.50
2023,04,27,13,08,15.60
2023,04,27,13,09,15.50
2023,04,27,13,10,15.40
2023,04,27,13,11,15.40
2023,04,27,13,12,15.30
2023,04,27,13,13,15.30
2023,04,27,13,14,15.30
2023,04,27,13,15,15.30
2023,04,27,13,16,15.20
2023,04,27,13,17,15.10
2023,04,27,13,18,15.10
2023,04,27,13,19,15.10
2023,04,27,13,20,15.10
2023,04,27,13,21,15.10
2023,04,27,13,22,15.10
2023,04,27,13,23,15.10
2023,04,27,13,24,15.20
2023,04,27,13,25,15.20
2023,04,27,13,26,15.20
2023,04,27,13,27,15.30
2023,04,27,13,28,15.40
2023,04,27,13,29,15.50
2023,04,27,13,30,15.50
2023,04,27,13,31,15.50
2023,04,27,13,32,15.40
2023,04,27,13,33,15.40
2023,04,27,13,34,15.40
2023,04,27,13,35,15.40
2023,04,27,13,36,15.50
2023,04,27,13,37,15.60
2023,04,27,13,38,15.70
2023,04,27,13,39,15.70
2023,04,27,13,40,15.70
2023,04,27,13,41,15.70
2023,04,27,13,42,15.70
2023,04,27,13,43,15.70
2023,04,27,13,44,15.70
2023,04,27,13,45,15.80
2023,04,27,13,46,15.80
2023,04,27,13,47,15.90
2023,04,27,13,48,16.00
2023,04,27,13,49,16.10
2023,04,27,13,50,16.00
2023,04,27,13,51,15.80
2023,04,27,13,52,15.80
2023,04,27,13,53,15.80
2023,04,27,13,54,15.80
2023,04,27,13,55,15.90
2023,04,27,13,56,15.90
2023,04,27,13,57,16.00
2023,04,27,13,58,16.10
2023,04,27,13,59,16.20
2023,04,27,14,00,16.30
2023,04,27,14,01,16.40
2023,04,27,14,02,16.50
2023,04,27,14,03,16.60
2023,04,27,14,04,16.70
2023,04,27,14,05,16.80
2023,04,27,14,06,16.80
2023,04,27,14,07,16.90
2023,04,27,14,08,16.90
2023,04,27,14,09,17.00
2023,04,27,14,10,17.00
2023,04,27,14,11,17.10
2023,04,27,14,12,17.10
2023,04,27,14,13,17.10
2023,04,27,14,14,17.20
2023,04,27,14,15,17.20
2023,04,27,14,16,17.20
2023,04,27,14,17,17.30
2023,04,27,14,18,17.30
2023,04,27,14,19,17.30
2023,04,27,14,20,17.30
2023,04,27,14,21,17.30
2023,04,27,14,22,17.30
2023,04,27,14,23,17.30
2023,04,27,14,24,17.20
2023,04,27,14,25,17.20
2023,04,27,14,26,17.00
2023,04,27,14,27,16.90
2023,04,27,14,28,16.90
2023,04,27,14,29,17.00
2023,04,27,14,30,17.00
2023,04,27,14,31,17.10
2023,04,27,14,32,17.10
2023,04,27,14,33,17.10
2023,04,27,14,34,17.10
2023,04,27,14,35,17.10
2023,04,27,14,36,17.00
2023,04,27,14,37,17.00
2023,04,27,14,38,16.90
2023,04,27,14,39,16.90
2023,04,27,14,40,16.90
2023,04,27,14,41,16.90
2023,04,27,14,42,17.00
2023,04,27,14,43,17.00
2023,04,27,14,44,17.00
2023,04,27,14,45,16.90
2023,04,27,14,46,17.00
2023,04,27,14,47,17.00
2023,04,27,14,48,17.10
2023,04,27,14,49,17.20
2023,04,27,14,50,17.30
2023,04,27,14,51,17.30
2023,04,27,14,52,17.40
2023,04,27,14,53,17.50
2023,04,27,14,54,17.60
2023,04,27,14,55,17.60
2023,04,27,14,56,17.70
2023,04,27,14,57,17.70
2023,04,27,14,58,17.70
2023,04,27,14,59,17.70
2023,04,27,15,00,17.70
2023,04,27,15,01,17.70
2023,04,27,15,02,17.80
2023,04,27,15,03,17.80
2023,04,27,15,04,17.80
2023,04,27,15,05,17.90
2023,04,27,15,06,17.90
2023,04,27,15,07,17.90
2023,04,27,15,08,18.00
2023,04,27,15,09,18.00
2023,04,27,15,10,18.00
2023,04,27,15,11,18.00
2023,04,27,15,12,18.00
2023,04,27,15,13,18.00
2023,04,27,15,14,18.00
2023,04,27,15,15,18.10
2023,04,27,15,16,18.10
2023,04,27,15,17,18.10
2023,04,27,15,18,18.10
2023,04,27,15,19,18.20
2023,04,27,15,20,18.20
2023,04,27,15,21,18.20
2023,04,27,15,22,18.20
2023,04,27,15,23,18.20
2023,04,27,15,24,18.20
2023,04,27,15,25,18.30
2023,04,27,15,26,18.30
2023,04,27,15,27,18.30
2023,04,27,15,28,18.20
2023,04,27,15,29,18.30
2023,04,27,15,30,18.30
2023,04,27,15,31,18.20
2023,04,27,15,32,18.10
2023,04,27,15,33,18.10
2023,04,27,15,34,18.10
2023,04,27,15,35,18.10
2023,04,27,15,36,18.10
2023,04,27,15,37,18.10
2023,04,27,15,38,17.90
2023,04,27,15,39,17.80
2023,04,27,15,40,17.70
2023,04,27,15,41,17.60
2023,04,27,15,42,17.50
2023,04,27,15,43,17.30
2023,04,27,15,44,17.20
2023,04,27,15,45,17.20
2023,04,27,15,46,17.20
2023,04,27,15,47,17.30
2023,04,27,15,48,17.30
2023,04,27,15,49,17.40
2023,04,27,15,50,17.50
2023,04,27,15,51,17.60
2023,04,27,15,52,17.60
2023,04,27,15,53,17.60
2023,04,27,15,54,17.60
2023,04,27,15,55,17.70
2023,04,27,15,56,17.70
2023,04,27,15,57,17.70
2023,04,27,15,58,17.80
2023,04,27,15,59,17.80
2023,04,27,16,00,17.90
2023,04,27,16,01,17.90
2023,04,27,16,02,17.90
2023,04,27,16,03,17.90
2023,04,27,16,04,17.90
2023,04,27,16,05,17.90
2023,04,27,16,06,17.90
2023,04,27,16,07,17.90
2023,04,27,16,08,17.90
2023,04,27,16,09,17.90
2023,04,27,16,10,17.80
2023,04,27,16,11,17.80
2023,04,27,16,12,17.80
2023,04,27,16,13,17.80
2023,04,27,16,14,17.80
2023,04,27,16,15,17.80
2023,04,27,16,16,17.80
2023,04,27,16,17,17.80
2023,04,27,16,18,17.80
2023,04,27,16,19,17.80
2023,04,27,16,20,17.80
2023,04,27,16,21,17.90
2023,04,27,16,22,17.90
2023,04,27,16,23,17.90
2023,04,27,16,24,17.90
2023,04,27,16,25,18.00
2023,04,27,16,26,18.00
2023,04,27,16,27,18.10
2023,04,27,16,28,18.20
2023,04,27,16,29,18.20
2023,04,27,16,30,18.30
2023,04,27,16,31,18.30
2023,04,27,16,32,18.30
2023,04,27,16,33,18.30
2023,04,27,16,34,18.30
2023,04,27,16,35,18.30
2023,04,27,16,36,18.20
2023,04,27,16,37,18.10
2023,04,27,16,38,18.00
2023,04,27,16,39,18.00
2023,04,27,16,40,18.00
2023,04,27,16,41,18.10
2023,04,27,16,42,18.10
2023,04,27,16,43,18.20
2023,04,27,16,44,18.20
2023,04,27,16,45,18.10
2023,04,27,16,46,18.10
2023,04,27,16,47,18.00
2023,04,27,16,48,18.10
2023,04,27,16,49,18.10
2023,04,27,16,50,18.20
2023,04,27,16,51,18.20
2023,04,27,16,52,18.20
2023,04,27,16,53,18.30
2023,04,27,16,54,18.30
2023,04,27,16,55,18.30
2023,04,27,16,56,18.30
2023,04,27,16,57,18.20
2023,04,27,16,58,18.20
2023,04,27,16,59,18.10
2023,04,27,17,00,18.10
2023,04,27,17,01,18.10
2023,04,27,17,02,18.20
2023,04,27,17,03,18.20
2023,04,27,17,04,18.20
2023,04,27,17,05,18.20
2023,04,27,17,06,18.30
2023,04,27,17,07,18.40
2023,04,27,17,08,18.40
2023,04,27,17,09,18.40
2023,04,27,17,10,18.40
2023,04,27,17,11,18.40
2023,04,27,17,12,18.30
2023,04,27,17,13,18.20
2023,04,27,17,14,18.10
2023,04,27,17,15,18.10
2023,04,27,17,16,18.10
2023,04,27,17,17,18.10
2023,04,27,17,18,18.10
2023,04,27,17,19,18.10
2023,04,27,17,20,18.10
2023,04,27,17,21,18.10
2023,04,27,17,22,18.20
2023,04,27,17,23,18.20
2023,04,27,17,24,18.20
2023,04,27,17,25,18.20
2023,04,27,17,26,18.20
2023,04,27,17,27,18.30
2023,04,27,17,28,18.30
2023,04,27,17,29,18.30
2023,04,27,17,30,18.30
2023,04,27,17,31,18.30
2023,04,27,17,32,18.40
2023,04,27,17,33,18.40
2023,04,27,17,34,18.40
2023,04,27,17,35,18.40
2023,04,27,17,36,18.40
2023,04,27,17,37,18.50
2023,04,27,17,38,18.50
2023,04,27,17,39,18.60
2023,04,27,17,40,18.60
2023,04,27,17,41,18.50
2023,04,27,17,42,18.50
2023,04,27,17,43,18.40